Beidou DW 52

operational
NORAD ID: 44864 Int'l Des: 2019-090 Owner: CNSA Country: CN Constellation: BeiDou
MEOCIRCULAR

Beidou DW 52について

説明を読み込み中...

リアルタイム位置

3D地球を読み込み中...

次回通過

高度履歴

Altitude vs Time

uPlot chart will show altitude changes over time

軌道要素

1 44864U 19090A 25299.08371039 -.00000009 00000-0 00000+0 0 9992
2 44864 56.3524 70.5420 0016175 284.5981 254.9559 1.86231609 39870
Epoch: Oct 26, 2025 • Age: 16 hours

現在のステータス

高度 21508.3 km
速度 3.78 km/s
衛星直下点 -53.78°S, 16°E
打ち上げ日 Dec 16, 2019
運用期間 5.8 years
タイプ navigation

技術仕様

分類 Payload
質量 1014.00 kg
乾燥質量 850.00 kg
総質量 1014.00 kg
長さ 2.20 m
直径 1.70 m
スパン 10.00 m
形状 Box + 2 Pan
製造者 CAST
バスタイプ BD-3M
フェーズステータス In Orbit
所有者/国 CNSA/CN

大規模コンステレーション

Loading constellations...